Location: Broletto
(44.6000°N, 10.5833°E)
Time: 07:14:17
(UTC+00:00)

Cosmos 1140 Rocket - Pass Details

Date: 18 April 2021
Orbit: 745 x 767 km, 74.1° (Epoch: 05 May)

Event Time Altitude Azimuth Distance (km) Brightness Sun altitude
Exits shadow 19:38:37 25° 115° (ESE) 1,472 4.4 -15.6°
Maximum altitude 19:39:26 26° 99° (E) 1,432 4.4 -15.8°
Drops below altitude 10° 19:43:39 10° 44° (NE) 2,267 5.8 -16.4°
Sets 19:46:19 0° 32° (NNE) 3,196 6.8 -16.8°
